Location: Newark
(50.0821°N, 8.2414°E)
Time: 22:53:15
(UTC+00:00)

Envisat - Pass Details

Date: 02 September 2019
Orbit: 764 x 766 km, 98.1° (Epoch: 23 October)

Event Time Altitude Azimuth Distance (km) Brightness Sun altitude
Rises 18:52:37 0° 209° (SSW) 3,223 6.3 -7.4°
Reaches altitude 10° 18:55:37 10° 228° (SW) 2,302 5.8 -7.8°
Maximum altitude 18:59:06 18° 271° (W) 1,793 6.0 -8.3°
Drops below altitude 10° 19:02:37 10° 315° (NW) 2,315 6.8 -8.9°
Sets 19:05:39 0° 334° (NNW) 3,247 7.1 -9.3°
